When you browse on this site, cookies collect data to enhance your experience and personalize the content and advertising you see.
Visit our Privacy Policy to learn more. By continuing to use the site, you agree to this use of cookies and data.
  • In France
  • List of Countries
  • For 7 days
  • Water Temperature
  • Weather Map
  • Weather Widgets
  • user-avatar
    Login

    Hourly Weather Santa Fe

    Today, 20 February, Thursday

    Time Temperature Precipitation Wind Pressure Humidity
    00:00 +23°C° 0 mm 1 mps 756 mmHg 37%
    01:00 +23°C° 0 mm 1 mps 756 mmHg 38%
    02:00 +23°C° 0 mm 1 mps 757 mmHg 39%
    03:00 +21°C° 0 mm 2 mps 757 mmHg 39%
    04:00 +21°C° 0 mm 3 mps 758 mmHg 40%
    05:00 +20°C° 0 mm 5 mps 759 mmHg 40%
    06:00 +21°C° 0 mm 5 mps 759 mmHg 40%
    07:00 +22°C° 0 mm 6 mps 760 mmHg 41%
    08:00 +22°C° 0 mm 7 mps 761 mmHg 42%
    09:00 +24°C° 0 mm 7 mps 761 mmHg 34%
    10:00 +27°C° 0 mm 7 mps 761 mmHg 27%
    11:00 +29°C° 0 mm 7 mps 762 mmHg 20%
    12:00 +30°C° 0 mm 6 mps 761 mmHg 19%
    13:00 +32°C° 0 mm 6 mps 761 mmHg 17%
    14:00 +33°C° 0 mm 6 mps 761 mmHg 16%
    15:00 +32°C° 0 mm 6 mps 761 mmHg 16%
    16:00 +30°C° 0 mm 6 mps 760 mmHg 16%
    17:00 +30°C° 0 mm 6 mps 760 mmHg 17%
    18:00 +27°C° 0 mm 5 mps 761 mmHg 21%
    19:00 +25°C° 0 mm 4 mps 761 mmHg 24%
    20:00 +22°C° 0 mm 3 mps 762 mmHg 28%
    21:00 +21°C° 0 mm 3 mps 762 mmHg 30%
    22:00 +20°C° 0 mm 2 mps 763 mmHg 32%
    23:00 +19°C° 0 mm 2 mps 763 mmHg 34%

    Tomorrow, 21 February, Friday

    Time Temperature Precipitation Wind Pressure Humidity
    00:00 +18°C° 0 mm 2 mps 764 mmHg 36%
    01:00 +18°C° 0 mm 2 mps 764 mmHg 37%
    02:00 +19°C° 0 mm 1 mps 764 mmHg 39%
    09:00 +22°C° 0 mm 3 mps 766 mmHg 32%
    10:00 +25°C° 0 mm 4 mps 766 mmHg 27%
    11:00 +28°C° 0 mm 4 mps 766 mmHg 22%
    12:00 +28°C° 0 mm 4 mps 765 mmHg 20%
    13:00 +29°C° 0 mm 5 mps 764 mmHg 19%
    14:00 +30°C° 0 mm 6 mps 763 mmHg 17%
    15:00 +30°C° 0 mm 6 mps 763 mmHg 18%
    16:00 +29°C° 0 mm 6 mps 763 mmHg 19%
    17:00 +29°C° 0 mm 6 mps 762 mmHg 20%
    18:00 +26°C° 0 mm 5 mps 763 mmHg 25%
    19:00 +23°C° 0 mm 4 mps 763 mmHg 30%
    20:00 +20°C° 0 mm 3 mps 763 mmHg 35%
    21:00 +20°C° 0 mm 2 mps 764 mmHg 37%
    22:00 +19°C° 0 mm 2 mps 764 mmHg 40%
    23:00 +18°C° 0 mm 2 mps 764 mmHg 42%

    Day after tomorrow, 22 February, Saturday

    Time Temperature Precipitation Wind Pressure Humidity
    00:00 +18°C° 0 mm 2 mps 764 mmHg 45%
    01:00 +17°C° 0 mm 2 mps 764 mmHg 47%
    02:00 +16°C° 0 mm 2 mps 764 mmHg 49%
    03:00 +16°C° 0 mm 2 mps 765 mmHg 50%
    04:00 +15°C° 0 mm 2 mps 765 mmHg 52%
    05:00 +15°C° 0 mm 2 mps 765 mmHg 54%
    06:00 +16°C° 0 mm 2 mps 765 mmHg 51%
    07:00 +18°C° 0 mm 3 mps 766 mmHg 48%
    08:00 +20°C° 0 mm 3 mps 766 mmHg 45%
    09:00 +22°C° 0 mm 3 mps 766 mmHg 39%
    10:00 +25°C° 0 mm 3 mps 765 mmHg 34%
    11:00 +27°C° 0 mm 2 mps 765 mmHg 29%
    12:00 +28°C° 0 mm 2 mps 764 mmHg 26%
    13:00 +29°C° 0 mm 2 mps 763 mmHg 23%
    14:00 +30°C° 0 mm 2 mps 762 mmHg 20%
    15:00 +30°C° 0 mm 3 mps 762 mmHg 20%
    16:00 +30°C° 0 mm 3 mps 761 mmHg 19%
    17:00 +30°C° 0 mm 3 mps 761 mmHg 19%
    18:00 +28°C° 0 mm 3 mps 761 mmHg 23%
    19:00 +26°C° 0 mm 3 mps 761 mmHg 27%
    20:00 +22°C° 0 mm 3 mps 761 mmHg 31%
    21:00 +21°C° 0 mm 3 mps 761 mmHg 32%
    22:00 +20°C° 0 mm 4 mps 761 mmHg 34%
    23:00 +19°C° 0 mm 4 mps 761 mmHg 36%

    23 February, Sunday

    Time Temperature Precipitation Wind Pressure Humidity
    00:00 +19°C° 0 mm 3 mps 761 mmHg 40%
    01:00 +18°C° 0 mm 3 mps 761 mmHg 44%
    02:00 +17°C° 0 mm 2 mps 761 mmHg 49%
    03:00 +16°C° 0 mm 2 mps 761 mmHg 52%
    04:00 +16°C° 0 mm 2 mps 761 mmHg 56%
    05:00 +15°C° 0 mm 1 mps 761 mmHg 59%
    06:00 +17°C° 0 mm 2 mps 761 mmHg 54%
    07:00 +19°C° 0 mm 2 mps 761 mmHg 50%
    08:00 +21°C° 0 mm 2 mps 760 mmHg 45%
    09:00 +25°C° 0 mm 2 mps 760 mmHg 38%
    10:00 +27°C° 0 mm 2 mps 760 mmHg 32%
    11:00 +29°C° 0 mm 2 mps 759 mmHg 25%
    12:00 +30°C° 0 mm 2 mps 759 mmHg 23%
    13:00 +31°C° 0 mm 2 mps 758 mmHg 21%
    14:00 +32°C° 0 mm 2 mps 757 mmHg 19%
    15:00 +32°C° 0 mm 2 mps 756 mmHg 19%
    16:00 +32°C° 0 mm 2 mps 755 mmHg 20%
    17:00 +32°C° 0 mm 2 mps 755 mmHg 21%
    18:00 +30°C° 0 mm 2 mps 755 mmHg 27%
    19:00 +27°C° 0 mm 3 mps 755 mmHg 33%
    20:00 +25°C° 0 mm 3 mps 755 mmHg 39%
    21:00 +24°C° 0 mm 3 mps 755 mmHg 43%
    22:00 +22°C° 0 mm 3 mps 755 mmHg 46%
    23:00 +21°C° 0 mm 3 mps 755 mmHg 50%

    24 February, Monday

    Time Temperature Precipitation Wind Pressure Humidity
    00:00 +21°C° 0 mm 3 mps 755 mmHg 54%
    01:00 +20°C° 0 mm 3 mps 755 mmHg 57%
    02:00 +19°C° 0 mm 2 mps 755 mmHg 61%
    03:00 +19°C° 0 mm 2 mps 755 mmHg 63%
    04:00 +19°C° 0 mm 2 mps 755 mmHg 65%
    05:00 +18°C° 0 mm 2 mps 755 mmHg 68%
    06:00 +20°C° 0 mm 2 mps 755 mmHg 61%
    07:00 +23°C° 0 mm 2 mps 755 mmHg 54%
    08:00 +25°C° 0 mm 3 mps 755 mmHg 47%
    09:00 +28°C° 0 mm 2 mps 755 mmHg 39%
    10:00 +30°C° 0 mm 2 mps 755 mmHg 32%
    11:00 +34°C° 0 mm 2 mps 754 mmHg 24%
    12:00 +35°C° 0 mm 1 mps 754 mmHg 22%
    13:00 +36°C° 0 mm 1 mps 753 mmHg 20%
    14:00 +37°C° 0 mm 1 mps 752 mmHg 17%
    15:00 +37°C° 0 mm 1 mps 751 mmHg 18%
    16:00 +37°C° 0 mm 2 mps 751 mmHg 18%
    17:00 +37°C° 0 mm 2 mps 750 mmHg 18%
    18:00 +34°C° 0 mm 2 mps 750 mmHg 22%
    19:00 +31°C° 0 mm 2 mps 751 mmHg 26%
    20:00 +28°C° 0 mm 3 mps 751 mmHg 29%
    21:00 +27°C° 0 mm 3 mps 751 mmHg 33%
    22:00 +26°C° 0 mm 3 mps 751 mmHg 36%
    23:00 +25°C° 0 mm 3 mps 752 mmHg 39%

    25 February, Tuesday

    Time Temperature Precipitation Wind Pressure Humidity
    00:00 +25°C° 0 mm 3 mps 751 mmHg 40%
    01:00 +24°C° 0 mm 3 mps 751 mmHg 41%
    02:00 +24°C° 0 mm 3 mps 751 mmHg 42%
    03:00 +22°C° 0 mm 3 mps 751 mmHg 44%
    04:00 +22°C° 0 mm 3 mps 752 mmHg 46%
    05:00 +21°C° 0 mm 3 mps 752 mmHg 49%
    06:00 +24°C° 0 mm 3 mps 752 mmHg 45%
    07:00 +26°C° 0 mm 2 mps 752 mmHg 40%
    08:00 +28°C° 0 mm 2 mps 753 mmHg 36%
    09:00 +31°C° 0 mm 2 mps 752 mmHg 31%
    10:00 +35°C° 0 mm 2 mps 752 mmHg 26%
    11:00 +38°C° 0 mm 3 mps 752 mmHg 20%
    12:00 +39°C° 0 mm 3 mps 751 mmHg 18%
    13:00 +42°C° 0 mm 3 mps 750 mmHg 15%
    14:00 +43°C° 0 mm 3 mps 749 mmHg 13%
    15:00 +43°C° 0 mm 3 mps 749 mmHg 13%
    16:00 +41°C° 0 mm 2 mps 748 mmHg 13%
    17:00 +41°C° 0 mm 2 mps 747 mmHg 13%
    18:00 +38°C° 0 mm 2 mps 748 mmHg 19%
    19:00 +34°C° 0 mm 3 mps 749 mmHg 25%
    20:00 +30°C° 0 mm 3 mps 749 mmHg 31%
    21:00 +29°C° 0.1 mm 4 mps 750 mmHg 34%
    22:00 +28°C° 0.1 mm 5 mps 751 mmHg 37%
    23:00 +27°C° 0.1 mm 6 mps 752 mmHg 40%
    Show more